Change the Weather History Date:

Monday, November 21, 2011

  Actual Average (KYKM) Record (KYKM)
Temperature  
Mean Temperature 31 °F 35 °F  
Max Temperature 34 °F 45 °F 62 °F (1980)
Min Temperature 28 °F 26 °F 0 °F (1985)
Degree Days  
Heating Degree Days 34 30  
Month to date heating degree days 545  
Since 1 July heating degree days 1249  
Cooling Degree Days 0 0  
Month to date cooling degree days 0  
Year to date cooling degree days 472  
Moisture  
Dew Point 26 °F    
Average Humidity 82    
Maximum Humidity 88    
Minimum Humidity 70    
Precipitation  
Precipitation 0.04 in 0.04 in 0.67 in (1992)
Month to date precipitation 0.69  
Year to date precipitation 6.36  
Snow  
Snow 0.00 in 0.10 in 5.40 in (1985)
Month to date snowfall 1.6  
Year to date snowfall 10.3  
Since 1 July snowfall 1.7  
Snow Depth -    
Sea Level Pressure  
Sea Level Pressure 29.82 in    
Wind  
Wind Speed 2 mph (East)    
Max Wind Speed 8 mph    
Max Gust Speed -    
Visibility 6 miles    
Events Rain , Snow    
T = Trace of Precipitation, MM = Missing Value Source: NWS Daily Summary

Daily Weather History Graph

Daily Weather History Graph

Search for Another Location

Airport or City:

Trip Planner

Search our weather history database for the weather conditions in past years. The results will help you decide how hot, cold, wet, or windy it might be!

Date:

Astronomy

Nov. 21, 2011 Rise Set
Actual Time 7:13 AM PST 4:21 PM PST
Civil Twilight 6:40 AM PST 4:55 PM PST
Nautical Twilight 6:02 AM PST 5:32 PM PST
Astronomical Twilight 5:26 AM PST 6:08 PM PST
Moon 2:45 AM PST (11/21) 1:57 PM PST (11/21)
Length of Visible Light 10h 15m
Length of Day
9h 07m
Waning Crescent, 16% of the Moon is Illuminated
Nov 21
Waning Crescent
Nov 24
New
Dec 2
First Quarter
Dec 10
Full
Dec 17
Last Quarter

Hourly Weather History & Observations

Time (PST) Temp. Windchill Dew Point Humidity Pressure Visibility Wind Dir Wind Speed Gust Speed Precip Events Conditions
12:53 AM 28.9 °F - 24.1 °F 82% 29.94 in 8.0 mi Calm Calm - N/A   Overcast
1:53 AM 28.0 °F - 24.1 °F 85% 29.94 in 6.0 mi Calm Calm - N/A   Overcast
2:53 AM 28.9 °F - 24.1 °F 82% 29.92 in 5.0 mi Calm Calm - 0.00 in Snow Light Snow
3:05 AM 28.4 °F - 24.8 °F 86% 29.86 in 1.8 mi Calm Calm - 0.00 in Snow Light Snow
3:21 AM 28.4 °F - 24.8 °F 86% 29.85 in 1.0 mi Calm Calm - 0.01 in Snow Light Snow
3:28 AM 28.4 °F - 24.8 °F 86% 29.85 in 1.5 mi Calm Calm - 0.01 in Snow Light Snow
3:36 AM 28.4 °F - 24.8 °F 86% 29.85 in 2.5 mi Calm Calm - 0.01 in Snow Light Snow
3:53 AM 28.0 °F - 25.0 °F 88% 29.90 in 2.5 mi Calm Calm - 0.01 in   Overcast
4:02 AM 28.4 °F - 24.8 °F 86% 29.84 in 4.0 mi Calm Calm - N/A   Overcast
4:34 AM 28.4 °F - 24.8 °F 86% 29.84 in 4.0 mi Calm Calm - N/A   Overcast
4:53 AM 28.0 °F - 24.1 °F 85% 29.89 in 4.0 mi Calm Calm - N/A   Overcast
5:39 AM 28.4 °F 23.3 °F 24.8 °F 86% 29.81 in 6.0 mi ESE 4.6 mph - N/A   Haze
5:53 AM 28.9 °F - 25.0 °F 85% 29.87 in 6.0 mi Calm Calm - N/A   Overcast
6:53 AM 30.0 °F 22.4 °F 25.0 °F 82% 29.87 in 5.0 mi ESE 8.1 mph - 0.00 in Snow Light Snow
7:06 AM 28.4 °F 22.2 °F 24.8 °F 86% 29.80 in 2.5 mi ESE 5.8 mph - 0.00 in Snow Light Snow
7:38 AM 28.4 °F 21.2 °F 24.8 °F 86% 29.80 in 1.2 mi East 6.9 mph - 0.01 in Snow Light Snow
7:53 AM 28.9 °F 21.1 °F 24.1 °F 82% 29.85 in 2.5 mi ESE 8.1 mph - 0.01 in Snow Light Snow
8:06 AM 28.4 °F 22.2 °F 24.8 °F 86% 29.79 in 1.0 mi ESE 5.8 mph - 0.00 in Snow Light Snow
8:26 AM 30.2 °F 25.4 °F 24.8 °F 80% 29.80 in 0.5 mi East 4.6 mph - 0.01 in Snow Snow
8:53 AM 30.9 °F 25.2 °F 26.1 °F 82% 29.86 in 0.8 mi East 5.8 mph - 0.02 in Snow Light Snow
8:58 AM 30.2 °F 24.3 °F 26.6 °F 86% 29.80 in 1.2 mi East 5.8 mph - 0.00 in Snow Light Snow
9:09 AM 30.2 °F 22.6 °F 24.8 °F 80% 29.80 in 3.0 mi ESE 8.1 mph - 0.00 in Snow Light Snow
9:53 AM 32.0 °F 28.7 °F 25.0 °F 75% 29.86 in 10.0 mi East 3.5 mph - 0.00 in   Overcast
10:53 AM 32.0 °F 27.5 °F 26.1 °F 79% 29.86 in 10.0 mi WSW 4.6 mph - 0.00 in   Overcast
11:38 AM 32.0 °F 26.4 °F 26.6 °F 80% 29.81 in 9.0 mi West 5.8 mph - N/A   Overcast
11:53 AM 32.0 °F 28.7 °F 26.1 °F 79% 29.86 in 10.0 mi West 3.5 mph - N/A   Overcast
12:53 PM 33.1 °F 28.7 °F 25.0 °F 72% 29.87 in 10.0 mi WNW 4.6 mph - N/A   Overcast
2:53 PM 34.0 °F - 25.0 °F 70% 29.86 in 10.0 mi Calm Calm - N/A   Overcast
3:53 PM 32.0 °F - 24.1 °F 73% 29.86 in 10.0 mi Calm Calm - N/A   Partly Cloudy
4:46 PM 32.0 °F - 26.6 °F 80% 29.79 in 10.0 mi Calm Calm - N/A   Overcast
4:53 PM 32.0 °F - 26.1 °F 79% 29.85 in 10.0 mi Calm Calm - N/A   Overcast
5:53 PM 32.0 °F - 27.0 °F 82% 29.83 in 9.0 mi Calm Calm - N/A   Overcast
6:53 PM 33.1 °F - 27.0 °F 78% 29.81 in 10.0 mi Calm Calm - N/A   Overcast
7:49 PM 33.8 °F - 26.6 °F 75% 29.76 in 8.0 mi Calm Calm - 0.00 in Rain Light Rain
7:53 PM 32.0 °F - 27.0 °F 82% 29.81 in 7.0 mi Calm Calm - 0.00 in   Overcast
8:53 PM 32.0 °F - 27.0 °F 82% 29.79 in 8.0 mi Calm Calm - 0.00 in   Overcast
9:22 PM 32.0 °F - 26.6 °F 80% 29.74 in 7.0 mi Calm Calm - N/A   Overcast
9:53 PM 32.0 °F 28.7 °F 27.0 °F 82% 29.78 in 7.0 mi WNW 3.5 mph - N/A   Overcast
11:16 PM 32.0 °F - 28.4 °F 87% 29.69 in 6.0 mi Calm Calm - N/A   Overcast
11:29 PM 32.0 °F - 28.4 °F 87% 29.69 in 6.0 mi Calm Calm - N/A   Overcast
11:51 PM 32.0 °F 28.7 °F 28.4 °F 87% 29.67 in 7.0 mi NW 3.5 mph - N/A   Overcast
11:53 PM 32.0 °F - 28.0 °F 85% 29.72 in 7.0 mi Calm Calm - N/A   Overcast